Location: Unspecified
(45.2733°N, 0.0000°E)
Time: 04:49:53
(UTC+00:00)

Tiangong 2 - Visible Passes

Search period start: 27 May 2019 00:00
Search period end: 06 June 2019 00:00
Orbit: 379 x 387 km, 42.8° (Epoch: 26 May)

Date Brightness Start Highest point End Pass type
(mag) Time Alt. Az. Time Alt. Az. Time Alt. Az.
27 May 1.5 20:23:06 10° W 20:26:08 46° S 20:29:00 11° ESE visible
27 May 3.4 22:00:12 10° WSW 22:01:11 15° SW 22:01:11 15° SW visible
28 May 2.3 20:59:52 10° W 21:02:34 26° SSW 21:03:43 21° SSE visible
29 May 3.5 21:37:34 10° SW 21:38:25 12° SW 21:38:25 12° SW visible
30 May 3.0 20:36:42 10° WSW 20:38:58 18° SSW 20:40:58 11° SSE visible
